| time (UTC) | temp F | wind direction | speed MPH | gust MPH | rain 1hr in | rain 24hr in | rain mn in | humidity % | barometer mb |
| 20260903163017 | 68 | 127 | 4.0 | 11.0 | 0.00 | 0.12 | 0.12 | 72 | 1022.6 |
| 20260903162515 | 68 | 125 | 5.0 | 9.0 | 0.00 | 0.12 | 0.12 | 72 | 1022.7 |
| 20260903162022 | 68 | 161 | 4.0 | 9.0 | 0.00 | 0.12 | 0.12 | 72 | 1022.9 |
| 20260903161521 | 68 | 143 | 3.0 | 9.0 | 0.00 | 0.12 | 0.12 | 73 | 1022.9 |
| 20260903161018 | 68 | 103 | 6.0 | 11.0 | 0.00 | 0.12 | 0.12 | 73 | 1022.9 |
| 20260903160510 | 68 | 163 | 5.0 | 11.0 | 0.00 | 0.12 | 0.12 | 75 | 1022.8 |
| 20260903160018 | 67 | 80 | 3.0 | 11.0 | 0.00 | 0.12 | 0.12 | 75 | 1022.8 |
| 20260903155510 | 68 | 105 | 5.0 | 11.0 | 0.00 | 0.12 | 0.12 | 74 | 1022.9 |
| 20260903155018 | 68 | 112 | 7.0 | 10.0 | 0.00 | 0.12 | 0.12 | 71 | 1022.9 |
| 20260903154511 | 68 | 158 | 5.0 | 9.0 | 0.00 | 0.12 | 0.12 | 72 | 1022.8 |
| 20260903154017 | 68 | 150 | 5.0 | 8.0 | 0.00 | 0.12 | 0.12 | 74 | 1022.9 |
| 20260903153511 | 67 | 107 | 3.0 | 10.0 | 0.00 | 0.12 | 0.12 | 75 | 1023.0 |
| 20260903153028 | 67 | 135 | 4.0 | 9.0 | 0.00 | 0.12 | 0.12 | 74 | 1022.9 |
| 20260903152521 | 67 | 157 | 4.0 | 10.0 | 0.00 | 0.12 | 0.12 | 74 | 1022.9 |
| 20260903152017 | 67 | 131 | 5.0 | 10.0 | 0.00 | 0.12 | 0.12 | 72 | 1022.9 |
| 20260903151510 | 67 | 122 | 5.0 | 10.0 | 0.00 | 0.12 | 0.12 | 73 | 1022.9 |
| 20260903151018 | 67 | 176 | 4.0 | 9.0 | 0.00 | 0.12 | 0.12 | 74 | 1022.9 |
| 20260903150510 | 67 | 86 | 5.0 | 11.0 | 0.00 | 0.12 | 0.12 | 75 | 1023.0 |
| 20260903150018 | 67 | 134 | 6.0 | 10.0 | 0.00 | 0.12 | 0.12 | 75 | 1023.2 |
| 20260903145511 | 67 | 129 | 6.0 | 10.0 | 0.00 | 0.12 | 0.12 | 75 | 1023.1 |
| 20260903145017 | 68 | 113 | 6.0 | 10.0 | 0.00 | 0.12 | 0.12 | 74 | 1023.1 |
| 20260903144510 | 68 | 110 | 7.0 | 10.0 | 0.00 | 0.12 | 0.12 | 73 | 1023.1 |
| 20260903144018 | 68 | 109 | 4.0 | 9.0 | 0.00 | 0.12 | 0.12 | 75 | 1023.3 |
| 20260903143521 | 68 | 153 | 4.0 | 8.0 | 0.00 | 0.12 | 0.12 | 76 | 1023.5 |
| 20260903143019 | 68 | 160 | 5.0 | 12.0 | 0.00 | 0.12 | 0.12 | 76 | 1023.5 |
| 20260903142511 | 67 | 131 | 6.0 | 12.0 | 0.00 | 0.12 | 0.12 | 75 | 1023.6 |
| 20260903142018 | 67 | 203 | 5.0 | 10.0 | 0.00 | 0.12 | 0.12 | 76 | 1023.5 |
| 20260903141518 | 67 | 241 | 5.0 | 9.0 | 0.00 | 0.12 | 0.12 | 76 | 1023.4 |
| 20260903141010 | 67 | 152 | 5.0 | 8.0 | 0.00 | 0.12 | 0.12 | 77 | 1023.4 |
| 20260903140518 | 66 | 145 | 4.0 | 8.0 | 0.00 | 0.12 | 0.12 | 77 | 1023.4 |
| 20260903140021 | 66 | 167 | 4.0 | 7.0 | 0.00 | 0.12 | 0.12 | 79 | 1023.4 |
| 20260903135519 | 66 | 128 | 3.0 | 7.0 | 0.00 | 0.12 | 0.12 | 80 | 1023.4 |
| 20260903135010 | 65 | 165 | 3.0 | 8.0 | 0.00 | 0.12 | 0.12 | 80 | 1023.4 |
| 20260903134518 | 65 | 162 | 3.0 | 8.0 | 0.00 | 0.12 | 0.12 | 80 | 1023.4 |
| 20260903134011 | 65 | 153 | 2.0 | 7.0 | 0.00 | 0.12 | 0.12 | 81 | 1023.4 |
| 20260903133529 | 65 | 131 | 3.0 | 6.0 | 0.00 | 0.12 | 0.12 | 81 | 1023.3 |
| 20260903133015 | 65 | 146 | 3.0 | 7.0 | 0.00 | 0.12 | 0.12 | 82 | 1023.3 |
| 20260903132529 | 65 | 141 | 3.0 | 7.0 | 0.00 | 0.12 | 0.12 | 81 | 1023.2 |
| 20260903132010 | 65 | 120 | 2.0 | 7.0 | 0.00 | 0.12 | 0.12 | 83 | 1023.3 |
| 20260903131519 | 65 | 147 | 2.0 | 6.0 | 0.00 | 0.12 | 0.12 | 85 | 1023.4 |
| 20260903131010 | 65 | 86 | 2.0 | 5.0 | 0.00 | 0.12 | 0.12 | 86 | 1023.5 |
| 20260903130518 | 64 | 150 | 2.0 | 5.0 | 0.00 | 0.12 | 0.12 | 88 | 1023.5 |
| 20260903130010 | 64 | 158 | 1.0 | 3.0 | 0.00 | 0.12 | 0.12 | 90 | 1023.5 |
| 20260903125518 | 64 | 140 | 1.0 | 2.0 | 0.00 | 0.12 | 0.12 | 90 | 1023.5 |
| 20260903125016 | 64 | 149 | 1.0 | 3.0 | 0.00 | 0.12 | 0.12 | 90 | 1023.5 |
| 20260903124518 | 63 | 80 | 0.0 | 4.0 | 0.00 | 0.12 | 0.12 | 91 | 1023.6 |
| 20260903124023 | 63 | 92 | 1.0 | 4.0 | 0.00 | 0.12 | 0.12 | 91 | 1023.4 |
| 20260903123529 | 63 | 145 | 1.0 | 4.0 | 0.00 | 0.12 | 0.12 | 91 | 1023.5 |
| 20260903123011 | 63 | 147 | 1.0 | 4.0 | 0.00 | 0.12 | 0.12 | 92 | 1023.5 |
| 20260903122518 | 63 | 230 | 0.0 | 3.0 | 0.00 | 0.12 | 0.12 | 92 | 1023.5 |
| 20260903122010 | 62 | 125 | 1.0 | 3.0 | 0.00 | 0.12 | 0.12 | 92 | 1023.5 |
| 20260903121519 | 62 | 174 | 0.0 | 1.0 | 0.00 | 0.12 | 0.12 | 93 | 1023.4 |
| 20260903121010 | 62 | 115 | 0.0 | 2.0 | 0.00 | 0.12 | 0.12 | 93 | 1023.5 |
| 20260903120518 | 62 | 108 | 1.0 | 2.0 | 0.00 | 0.12 | 0.12 | 93 | 1023.7 |
| 20260903120019 | 62 | 113 | 0.0 | 2.0 | 0.00 | 0.12 | 0.12 | 93 | 1023.8 |
| 20260903115521 | 62 | 111 | 0.0 | 2.0 | 0.00 | 0.13 | 0.12 | 93 | 1023.9 |
| 20260903115019 | 61 | 86 | 0.0 | 2.0 | 0.00 | 0.13 | 0.12 | 93 | 1023.9 |
| 20260903114511 | 61 | 52 | 1.0 | 2.0 | 0.00 | 0.13 | 0.12 | 93 | 1023.9 |
| 20260903114029 | 61 | 103 | 1.0 | 2.0 | 0.00 | 0.13 | 0.12 | 94 | 1024.0 |
| 20260903113521 | 61 | 61 | 0.0 | 2.0 | 0.00 | 0.13 | 0.12 | 94 | 1024.0 |
| 20260903113018 | 61 | 68 | 0.0 | 2.0 | 0.00 | 0.13 | 0.12 | 94 | 1023.9 |
| 20260903112511 | 61 | 77 | 0.0 | 3.0 | 0.00 | 0.13 | 0.12 | 94 | 1023.9 |
| 20260903112018 | 60 | 44 | 1.0 | 3.0 | 0.00 | 0.13 | 0.12 | 94 | 1023.9 |
| 20260903111510 | 60 | 65 | 1.0 | 2.0 | 0.00 | 0.13 | 0.12 | 94 | 1023.8 |
| 20260903111023 | 60 | 90 | 0.0 | 2.0 | 0.00 | 0.13 | 0.12 | 94 | 1023.9 |
| 20260903110625 | 60 | 61 | 1.0 | 2.0 | 0.00 | 0.13 | 0.12 | 94 | 1024.1 |
| 20260903110018 | 60 | 65 | 0.0 | 1.0 | 0.00 | 0.13 | 0.12 | 94 | 1024.0 |
| 20260903105510 | 60 | 30 | 0.0 | 1.0 | 0.00 | 0.13 | 0.12 | 94 | 1024.0 |
| 20260903105018 | 60 | 30 | 0.0 | 1.0 | 0.00 | 0.13 | 0.12 | 94 | 1023.9 |
| 20260903104510 | 60 | 30 | 0.0 | 3.0 | 0.00 | 0.13 | 0.12 | 94 | 1023.9 |
| 20260903104018 | 60 | 26 | 1.0 | 3.0 | 0.00 | 0.13 | 0.12 | 94 | 1024.0 |
| 20260903103521 | 60 | 17 | 0.0 | 3.0 | 0.00 | 0.13 | 0.12 | 94 | 1024.0 |
| 20260903103018 | 60 | 4 | 1.0 | 3.0 | 0.00 | 0.13 | 0.12 | 94 | 1023.9 |
| 20260903102511 | 60 | 17 | 1.0 | 2.0 | 0.00 | 0.13 | 0.12 | 94 | 1024.0 |
| 20260903102018 | 60 | 48 | 0.0 | 1.0 | 0.00 | 0.13 | 0.12 | 94 | 1023.9 |
| 20260903101518 | 60 | 49 | 0.0 | 2.0 | 0.00 | 0.13 | 0.12 | 94 | 1023.9 |
| 20260903101013 | 60 | 28 | 1.0 | 3.0 | 0.00 | 0.13 | 0.12 | 94 | 1023.9 |
| 20260903100518 | 60 | 45 | 1.0 | 3.0 | 0.00 | 0.13 | 0.12 | 94 | 1023.8 |
| 20260903100011 | 60 | 63 | 1.0 | 2.0 | 0.00 | 0.13 | 0.12 | 94 | 1023.7 |
| 20260903095518 | 60 | 75 | 0.0 | 1.0 | 0.00 | 0.13 | 0.12 | 94 | 1023.7 |
| 20260903095010 | 59 | 68 | 0.0 | 2.0 | 0.00 | 0.13 | 0.12 | 94 | 1023.7 |
| 20260903094518 | 60 | 347 | 0.0 | 2.0 | 0.00 | 0.13 | 0.12 | 94 | 1023.8 |
| 20260903094010 | 59 | 14 | 1.0 | 3.0 | 0.00 | 0.13 | 0.12 | 94 | 1023.8 |
| 20260903093518 | 59 | 13 | 1.0 | 3.0 | 0.01 | 0.13 | 0.12 | 94 | 1023.9 |
| 20260903093010 | 59 | 8 | 1.0 | 3.0 | 0.01 | 0.13 | 0.12 | 94 | 1023.8 |
| 20260903092518 | 59 | 298 | 0.0 | 2.0 | 0.01 | 0.13 | 0.12 | 94 | 1023.9 |
| 20260903092019 | 59 | 8 | 0.0 | 3.0 | 0.01 | 0.13 | 0.12 | 94 | 1023.9 |
| 20260903091511 | 59 | 91 | 0.0 | 3.0 | 0.01 | 0.13 | 0.12 | 94 | 1023.8 |
| 20260903091018 | 59 | 28 | 0.0 | 3.0 | 0.01 | 0.13 | 0.12 | 94 | 1023.8 |
| 20260903090511 | 59 | 341 | 1.0 | 4.0 | 0.01 | 0.13 | 0.12 | 94 | 1023.7 |
| 20260903090023 | 59 | 25 | 1.0 | 4.0 | 0.02 | 0.13 | 0.12 | 94 | 1023.8 |
| 20260903085511 | 59 | 321 | 2.0 | 4.0 | 0.02 | 0.13 | 0.12 | 94 | 1023.7 |
| 20260903085019 | 59 | 355 | 2.0 | 3.0 | 0.02 | 0.13 | 0.12 | 94 | 1023.7 |
| 20260903084511 | 59 | 345 | 1.0 | 2.0 | 0.04 | 0.13 | 0.12 | 94 | 1023.7 |
| 20260903084029 | 59 | 328 | 1.0 | 3.0 | 0.05 | 0.13 | 0.12 | 94 | 1023.7 |
| 20260903083511 | 59 | 343 | 1.0 | 3.0 | 0.04 | 0.12 | 0.11 | 94 | 1023.7 |
| 20260903083019 | 59 | 341 | 1.0 | 3.0 | 0.10 | 0.12 | 0.11 | 94 | 1023.8 |
| 20260903082510 | 59 | 340 | 2.0 | 5.0 | 0.10 | 0.12 | 0.11 | 94 | 1023.8 |
| 20260903082029 | 59 | 333 | 2.0 | 5.0 | 0.10 | 0.12 | 0.11 | 94 | 1023.9 |
| 20260903081512 | 59 | 323 | 3.0 | 5.0 | 0.10 | 0.12 | 0.11 | 93 | 1023.9 |
| 20260903081018 | 60 | 323 | 3.0 | 5.0 | 0.10 | 0.12 | 0.11 | 93 | 1023.9 |
| 20260903080511 | 60 | 321 | 3.0 | 5.0 | 0.10 | 0.12 | 0.11 | 93 | 1023.9 |
| 20260903080019 | 60 | 341 | 2.0 | 5.0 | 0.09 | 0.11 | 0.10 | 93 | 1024.0 |
| 20260903075511 | 60 | 324 | 2.0 | 7.0 | 0.10 | 0.11 | 0.10 | 93 | 1024.0 |
| 20260903075019 | 60 | 307 | 4.0 | 7.0 | 0.09 | 0.10 | 0.09 | 93 | 1023.9 |
| 20260903074511 | 60 | 322 | 2.0 | 6.0 | 0.08 | 0.09 | 0.08 | 93 | 1024.0 |
| 20260903074018 | 60 | 335 | 4.0 | 6.0 | 0.07 | 0.08 | 0.07 | 93 | 1024.0 |
| 20260903073511 | 60 | 333 | 2.0 | 5.0 | 0.06 | 0.07 | 0.06 | 92 | 1024.1 |
| 20260903073030 | 60 | 296 | 2.0 | 4.0 | 0.01 | 0.02 | 0.01 | 92 | 1024.0 |
| 20260903072512 | 60 | 303 | 2.0 | 3.0 | 0.01 | 0.02 | 0.01 | 92 | 1024.0 |
| 20260903072018 | 60 | 2 | 1.0 | 4.0 | 0.01 | 0.02 | 0.01 | 92 | 1024.0 |
| 20260903071511 | 60 | 352 | 2.0 | 6.0 | 0.01 | 0.02 | 0.01 | 91 | 1023.9 |
| 20260903071029 | 60 | 17 | 1.0 | 6.0 | 0.01 | 0.02 | 0.01 | 91 | 1024.1 |
| 20260903070511 | 60 | 314 | 3.0 | 4.0 | 0.01 | 0.02 | 0.01 | 90 | 1024.1 |
| 20260903070019 | 61 | 327 | 1.0 | 3.0 | 0.01 | 0.02 | 0.01 | 90 | 1024.0 |
| 20260903065511 | 61 | 18 | 0.0 | 2.0 | 0.00 | 0.01 | 0.00 | 90 | 1024.1 |
| 20260903065019 | 61 | 307 | 0.0 | 1.0 | 0.00 | 0.01 | 0.00 | 90 | 1024.1 |
| 20260903064512 | 61 | 307 | 0.0 | 1.0 | 0.00 | 0.01 | 0.00 | 90 | 1024.0 |
| 20260903064018 | 61 | 307 | 0.0 | 1.0 | 0.00 | 0.01 | 0.00 | 90 | 1024.1 |
| 20260903063511 | 61 | 318 | 0.0 | 1.0 | 0.00 | 0.01 | 0.00 | 89 | 1024.1 |
| 20260903063023 | 61 | 318 | 0.0 | 2.0 | 0.00 | 0.01 | 0.00 | 89 | 1023.9 |
| 20260903062511 | 61 | 317 | 1.0 | 4.0 | 0.00 | 0.01 | 0.00 | 88 | 1024.0 |
| 20260903062019 | 61 | 221 | 1.0 | 6.0 | 0.00 | 0.01 | 0.00 | 89 | 1024.0 |
| 20260903061511 | 61 | 141 | 2.0 | 6.0 | 0.00 | 0.01 | 0.00 | 89 | 1023.8 |
| 20260903061029 | 61 | 139 | 2.0 | 4.0 | 0.00 | 0.01 | 0.00 | 89 | 1023.8 |
| 20260903060522 | 61 | 140 | 1.0 | 3.0 | 0.00 | 0.01 | 0.00 | 89 | 1023.8 |
| 20260903060019 | 61 | 137 | 1.0 | 4.0 | 0.00 | 0.01 | 0.00 | 89 | 1023.9 |
| 20260903055511 | 61 | 172 | 1.0 | 4.0 | 0.00 | 0.01 | 0.00 | 90 | 1023.8 |
| 20260903055019 | 61 | 141 | 1.0 | 3.0 | 0.00 | 0.01 | 0.00 | 90 | 1023.8 |
| 20260903054511 | 61 | 136 | 0.0 | 3.0 | 0.00 | 0.01 | 0.00 | 90 | 1023.8 |
| 20260903054018 | 61 | 144 | 0.0 | 3.0 | 0.00 | 0.01 | 0.00 | 90 | 1023.8 |
| 20260903053511 | 61 | 136 | 1.0 | 4.0 | 0.00 | 0.01 | 0.00 | 90 | 1023.8 |
| 20260903053019 | 61 | 168 | 2.0 | 4.0 | 0.00 | 0.01 | 0.00 | 90 | 1023.8 |
| 20260903052511 | 60 | 201 | 1.0 | 3.0 | 0.00 | 0.01 | 0.00 | 91 | 1023.9 |
| 20260903052019 | 60 | 170 | 0.0 | 4.0 | 0.00 | 0.01 | 0.00 | 91 | 1023.9 |
| 20260903051511 | 60 | 168 | 1.0 | 4.0 | 0.00 | 0.01 | 0.00 | 91 | 1023.9 |
| 20260903051018 | 60 | 119 | 2.0 | 4.0 | 0.00 | 0.01 | 0.00 | 91 | 1024.0 |
| 20260903050512 | 60 | 171 | 2.0 | 4.0 | 0.00 | 0.01 | 0.00 | 91 | 1024.0 |
| 20260903050019 | 60 | 184 | 2.0 | 4.0 | 0.00 | 0.01 | 0.00 | 91 | 1024.1 |
| 20260903045511 | 59 | 155 | 2.0 | 4.0 | 0.00 | 0.01 | 0.00 | 91 | 1024.1 |
| 20260903045018 | 59 | 203 | 1.0 | 3.0 | 0.00 | 0.01 | 0.00 | 90 | 1024.2 |
| 20260903044523 | 60 | 122 | 0.0 | 2.0 | 0.00 | 0.01 | 0.00 | 90 | 1024.2 |
| 20260903044030 | 59 | 226 | 0.0 | 0.0 | 0.00 | 0.01 | 0.00 | 90 | 1024.2 |
| 20260903043511 | 59 | 226 | 0.0 | 0.0 | 0.00 | 0.01 | 0.00 | 90 | 1024.3 |
| 20260903043019 | 60 | 226 | 0.0 | 0.0 | 0.00 | 0.01 | 0.00 | 90 | 1024.2 |
| 20260903042522 | 60 | 226 | 0.0 | 0.0 | 0.00 | 0.01 | 0.00 | 90 | 1024.2 |
| 20260903042020 | 60 | 226 | 0.0 | 0.0 | 0.00 | 0.01 | 0.00 | 90 | 1024.2 |
| 20260903041519 | 60 | 226 | 0.0 | 0.0 | 0.00 | 0.01 | 0.00 | 90 | 1024.2 |
| 20260903041011 | 60 | 226 | 0.0 | 0.0 | 0.00 | 0.01 | 0.00 | 90 | 1024.3 |
| 20260903040518 | 60 | 226 | 0.0 | 1.0 | 0.00 | 0.01 | 0.00 | 90 | 1024.2 |
| 20260903040011 | 60 | 245 | 0.0 | 1.0 | 0.00 | 0.01 | 0.00 | 89 | 1024.3 |
| 20260903035520 | 60 | 191 | 0.0 | 0.0 | 0.00 | 0.01 | 0.00 | 89 | 1024.2 |
| 20260903035022 | 61 | 181 | 0.0 | 0.0 | 0.00 | 0.01 | 0.00 | 89 | 1024.2 |
| 20260903034519 | 61 | 181 | 0.0 | 0.0 | 0.00 | 0.01 | 0.00 | 89 | 1024.2 |
| 20260903034019 | 61 | 158 | 0.0 | 0.0 | 0.00 | 0.01 | 0.00 | 89 | 1024.1 |
| 20260903033522 | 61 | 157 | 0.0 | 0.0 | 0.00 | 0.01 | 0.00 | 89 | 1024.1 |
| 20260903033019 | 61 | 160 | 0.0 | 0.0 | 0.00 | 0.01 | 0.00 | 89 | 1024.0 |
| 20260903032518 | 61 | 172 | 0.0 | 0.0 | 0.00 | 0.01 | 0.00 | 89 | 1024.1 |
| 20260903032023 | 61 | 172 | 0.0 | 0.0 | 0.00 | 0.01 | 0.00 | 89 | 1024.0 |
| 20260903031519 | 61 | 172 | 0.0 | 0.0 | 0.00 | 0.01 | 0.00 | 89 | 1023.9 |
| 20260903031022 | 61 | 172 | 0.0 | 1.0 | 0.00 | 0.01 | 0.00 | 89 | 1023.9 |
| 20260903030520 | 61 | 155 | 0.0 | 1.0 | 0.00 | 0.01 | 0.00 | 89 | 1023.9 |
| 20260903030012 | 61 | 198 | 0.0 | 0.0 | 0.00 | 0.01 | 0.00 | 89 | 1023.9 |
| 20260903025519 | 61 | 202 | 0.0 | 0.0 | 0.00 | 0.01 | 0.01 | 89 | 1024.0 |
| 20260903025011 | 61 | 195 | 0.0 | 0.0 | 0.00 | 0.01 | 0.01 | 89 | 1023.9 |
| 20260903024519 | 61 | 172 | 0.0 | 0.0 | 0.00 | 0.01 | 0.01 | 90 | 1023.9 |
| 20260903024016 | 61 | 142 | 0.0 | 0.0 | 0.00 | 0.01 | 0.01 | 90 | 1024.0 |
| 20260903023519 | 61 | 142 | 0.0 | 0.0 | 0.00 | 0.01 | 0.01 | 90 | 1023.9 |
| 20260903023018 | 61 | 158 | 0.0 | 0.0 | 0.00 | 0.01 | 0.01 | 90 | 1024.1 |
| 20260903022511 | 61 | 157 | 0.0 | 2.0 | 0.00 | 0.01 | 0.01 | 90 | 1024.1 |
| 20260903022019 | 61 | 157 | 0.0 | 4.0 | 0.00 | 0.01 | 0.01 | 90 | 1024.1 |
| 20260903021511 | 61 | 162 | 1.0 | 4.0 | 0.00 | 0.01 | 0.01 | 90 | 1024.1 |
| 20260903021019 | 61 | 127 | 0.0 | 2.0 | 0.00 | 0.01 | 0.01 | 90 | 1024.1 |
| 20260903020511 | 61 | 127 | 0.0 | 2.0 | 0.00 | 0.01 | 0.01 | 90 | 1024.1 |
| 20260903020019 | 61 | 158 | 0.0 | 2.0 | 0.00 | 0.01 | 0.01 | 90 | 1024.2 |
| 20260903015513 | 61 | 193 | 0.0 | 1.0 | 0.00 | 0.01 | 0.01 | 90 | 1024.3 |
| 20260903015019 | 61 | 152 | 0.0 | 2.0 | 0.00 | 0.01 | 0.01 | 90 | 1024.2 |
| 20260903014518 | 61 | 153 | 0.0 | 2.0 | 0.00 | 0.01 | 0.01 | 90 | 1024.3 |
| 20260903014012 | 61 | 188 | 1.0 | 2.0 | 0.00 | 0.01 | 0.01 | 90 | 1024.3 |
| 20260903013519 | 61 | 184 | 0.0 | 2.0 | 0.00 | 0.01 | 0.01 | 90 | 1024.6 |
| 20260903013018 | 61 | 210 | 1.0 | 2.0 | 0.00 | 0.01 | 0.01 | 90 | 1024.5 |
| 20260903012523 | 61 | 218 | 1.0 | 3.0 | 0.00 | 0.01 | 0.01 | 90 | 1024.6 |
| 20260903012019 | 61 | 205 | 1.0 | 3.0 | 0.00 | 0.01 | 0.01 | 90 | 1024.6 |
| 20260903011523 | 61 | 226 | 1.0 | 2.0 | 0.00 | 0.01 | 0.01 | 90 | 1024.7 |
| 20260903011011 | 61 | 214 | 1.0 | 2.0 | 0.00 | 0.01 | 0.01 | 90 | 1024.6 |
| 20260903010519 | 61 | 207 | 1.0 | 2.0 | 0.00 | 0.01 | 0.01 | 90 | 1024.7 |
| 20260903010011 | 61 | 221 | 0.0 | 2.0 | 0.00 | 0.01 | 0.01 | 89 | 1024.7 |
| 20260903005519 | 61 | 232 | 0.0 | 2.0 | 0.00 | 0.01 | 0.01 | 89 | 1024.6 |
| 20260903005012 | 61 | 230 | 0.0 | 1.0 | 0.00 | 0.01 | 0.01 | 89 | 1024.6 |
| 20260903004519 | 61 | 224 | 0.0 | 1.0 | 0.00 | 0.01 | 0.01 | 89 | 1024.6 |
| 20260903004018 | 61 | 193 | 1.0 | 1.0 | 0.00 | 0.01 | 0.01 | 90 | 1024.5 |
| 20260903003512 | 61 | 172 | 0.0 | 1.0 | 0.00 | 0.01 | 0.01 | 90 | 1024.5 |
| 20260903003019 | 61 | 161 | 0.0 | 0.0 | 0.00 | 0.01 | 0.01 | 89 | 1024.6 |
| 20260903002524 | 61 | 160 | 0.0 | 1.0 | 0.00 | 0.01 | 0.01 | 88 | 1024.5 |
| 20260903002019 | 61 | 160 | 0.0 | 2.0 | 0.00 | 0.01 | 0.01 | 88 | 1024.6 |
| 20260903001529 | 61 | 173 | 0.0 | 2.0 | 0.00 | 0.01 | 0.01 | 88 | 1024.5 |
| 20260903001023 | 62 | 158 | 0.0 | 1.0 | 0.00 | 0.01 | 0.01 | 89 | 1024.5 |
| 20260903000519 | 62 | 203 | 0.0 | 1.0 | 0.00 | 0.01 | 0.01 | 89 | 1024.5 |
| 20260903000011 | 62 | 212 | 0.0 | 1.0 | 0.00 | 0.01 | 0.01 | 88 | 1024.6 |
| 20260902235520 | 62 | 203 | 1.0 | 2.0 | 0.00 | 0.01 | 0.01 | 89 | 1024.6 |
| 20260902235018 | 62 | 216 | 1.0 | 2.0 | 0.00 | 0.01 | 0.01 | 89 | 1024.5 |
| 20260902234511 | 62 | 142 | 1.0 | 2.0 | 0.00 | 0.01 | 0.01 | 88 | 1024.3 |
| 20260902234019 | 62 | 221 | 1.0 | 3.0 | 0.00 | 0.01 | 0.01 | 88 | 1024.2 |
| 20260902233518 | 62 | 195 | 1.0 | 3.0 | 0.00 | 0.01 | 0.01 | 88 | 1024.2 |
| 20260902233022 | 62 | 135 | 1.0 | 4.0 | 0.00 | 0.01 | 0.01 | 88 | 1024.1 |
| 20260902232519 | 62 | 143 | 2.0 | 4.0 | 0.00 | 0.01 | 0.01 | 88 | 1024.2 |
| 20260902232029 | 62 | 148 | 1.0 | 3.0 | 0.00 | 0.01 | 0.01 | 88 | 1024.2 |
| 20260902231524 | 62 | 172 | 1.0 | 3.0 | 0.00 | 0.01 | 0.01 | 88 | 1024.1 |
| 20260902231019 | 62 | 207 | 0.0 | 3.0 | 0.00 | 0.01 | 0.01 | 88 | 1024.2 |
| 20260902230522 | 62 | 158 | 1.0 | 3.0 | 0.00 | 0.01 | 0.01 | 88 | 1024.2 |
| 20260902230011 | 62 | 158 | 1.0 | 2.0 | 0.00 | 0.01 | 0.01 | 88 | 1024.1 |
| 20260902225519 | 62 | 184 | 1.0 | 2.0 | 0.00 | 0.01 | 0.01 | 87 | 1024.1 |
| 20260902225018 | 62 | 163 | 1.0 | 2.0 | 0.00 | 0.01 | 0.01 | 86 | 1024.0 |
| 20260902224511 | 62 | 198 | 0.0 | 1.0 | 0.00 | 0.01 | 0.01 | 86 | 1024.1 |
| 20260902224025 | 63 | 207 | 0.0 | 1.0 | 0.00 | 0.01 | 0.01 | 85 | 1024.1 |
| 20260902223518 | 63 | 200 | 0.0 | 1.0 | 0.00 | 0.01 | 0.01 | 85 | 1024.0 |
| 20260902223012 | 63 | 162 | 0.0 | 1.0 | 0.00 | 0.01 | 0.01 | 84 | 1024.0 |
| 20260902222524 | 63 | 146 | 0.0 | 1.0 | 0.00 | 0.01 | 0.01 | 84 | 1024.0 |
| 20260902222030 | 63 | 145 | 0.0 | 2.0 | 0.00 | 0.01 | 0.01 | 84 | 1024.1 |
| 20260902221512 | 63 | 145 | 1.0 | 2.0 | 0.00 | 0.01 | 0.01 | 83 | 1024.2 |
| 20260902221019 | 63 | 157 | 0.0 | 1.0 | 0.00 | 0.01 | 0.01 | 84 | 1024.1 |
| 20260902220529 | 64 | 158 | 0.0 | 2.0 | 0.00 | 0.01 | 0.01 | 83 | 1024.2 |
| 20260902220012 | 64 | 149 | 0.0 | 2.0 | 0.00 | 0.01 | 0.01 | 84 | 1024.2 |
| 20260902215530 | 64 | 152 | 0.0 | 2.0 | 0.00 | 0.03 | 0.01 | 84 | 1024.2 |
| 20260902215011 | 64 | 155 | 0.0 | 2.0 | 0.00 | 0.03 | 0.01 | 84 | 1024.2 |
| 20260902214520 | 64 | 195 | 1.0 | 4.0 | 0.00 | 0.03 | 0.01 | 84 | 1024.3 |
| 20260902214018 | 64 | 173 | 1.0 | 4.0 | 0.00 | 0.03 | 0.01 | 83 | 1024.2 |
| 20260902213511 | 64 | 148 | 1.0 | 5.0 | 0.00 | 0.03 | 0.01 | 84 | 1024.2 |
| 20260902213019 | 64 | 191 | 2.0 | 5.0 | 0.00 | 0.03 | 0.01 | 84 | 1024.4 |
| 20260902212523 | 64 | 186 | 2.0 | 6.0 | 0.00 | 0.03 | 0.01 | 85 | 1024.4 |
| 20260902212012 | 64 | 169 | 2.0 | 6.0 | 0.00 | 0.03 | 0.01 | 85 | 1024.5 |
| 20260902211520 | 65 | 196 | 2.0 | 4.0 | 0.00 | 0.03 | 0.01 | 85 | 1024.5 |
| 20260902211018 | 65 | 162 | 1.0 | 3.0 | 0.00 | 0.03 | 0.01 | 84 | 1024.5 |
| 20260902210512 | 65 | 181 | 1.0 | 6.0 | 0.00 | 0.03 | 0.01 | 83 | 1024.7 |
| 20260902210030 | 65 | 211 | 2.0 | 6.0 | 0.00 | 0.03 | 0.01 | 82 | 1024.7 |
| 20260902205519 | 65 | 138 | 3.0 | 6.0 | 0.00 | 0.03 | 0.01 | 83 | 1024.8 |
| 20260902205012 | 65 | 172 | 3.0 | 6.0 | 0.00 | 0.03 | 0.01 | 84 | 1024.7 |
| 20260902204520 | 65 | 155 | 3.0 | 5.0 | 0.00 | 0.03 | 0.01 | 84 | 1024.8 |
| 20260902204019 | 65 | 172 | 3.0 | 7.0 | 0.00 | 0.03 | 0.01 | 83 | 1024.7 |
| 20260902203523 | 65 | 105 | 3.0 | 7.0 | 0.00 | 0.03 | 0.01 | 83 | 1024.6 |
| 20260902203019 | 65 | 140 | 2.0 | 7.0 | 0.00 | 0.03 | 0.01 | 84 | 1024.6 |
| 20260902202518 | 65 | 141 | 3.0 | 7.0 | 0.00 | 0.03 | 0.01 | 83 | 1024.6 |
| 20260902202012 | 65 | 150 | 2.0 | 7.0 | 0.00 | 0.03 | 0.01 | 84 | 1024.6 |
| 20260902201520 | 65 | 189 | 3.0 | 7.0 | 0.00 | 0.03 | 0.01 | 83 | 1024.6 |
| 20260902201019 | 65 | 121 | 4.0 | 8.0 | 0.00 | 0.03 | 0.01 | 84 | 1024.6 |
| 20260902200523 | 65 | 134 | 3.0 | 8.0 | 0.00 | 0.03 | 0.01 | 85 | 1024.5 |
| 20260902200019 | 65 | 118 | 5.0 | 9.0 | 0.00 | 0.03 | 0.01 | 84 | 1024.6 |
| 20260902195519 | 65 | 148 | 5.0 | 9.0 | 0.00 | 0.03 | 0.01 | 84 | 1024.6 |
| 20260902195012 | 65 | 117 | 5.0 | 8.0 | 0.00 | 0.03 | 0.01 | 84 | 1024.6 |
| 20260902194521 | 65 | 124 | 5.0 | 8.0 | 0.00 | 0.03 | 0.01 | 84 | 1024.6 |
| 20260902194019 | 66 | 152 | 4.0 | 8.0 | 0.00 | 0.03 | 0.01 | 84 | 1024.6 |
| 20260902193512 | 65 | 120 | 5.0 | 8.0 | 0.00 | 0.03 | 0.01 | 83 | 1024.6 |
| 20260902193019 | 65 | 118 | 5.0 | 9.0 | 0.00 | 0.03 | 0.01 | 83 | 1024.7 |
| 20260902192518 | 66 | 122 | 5.0 | 9.0 | 0.00 | 0.03 | 0.01 | 83 | 1024.6 |
| 20260902192013 | 66 | 115 | 4.0 | 7.0 | 0.00 | 0.03 | 0.01 | 82 | 1024.7 |
| 20260902191531 | 66 | 112 | 3.0 | 8.0 | 0.00 | 0.03 | 0.01 | 79 | 1024.7 |
| 20260902191018 | 66 | 117 | 4.0 | 8.0 | 0.00 | 0.03 | 0.01 | 77 | 1024.5 |
| 20260902190523 | 67 | 111 | 3.0 | 6.0 | 0.00 | 0.03 | 0.01 | 75 | 1024.4 |
| 20260902190025 | 67 | 120 | 2.0 | 5.0 | 0.00 | 0.03 | 0.01 | 77 | 1024.3 |
| 20260902185519 | 67 | 120 | 2.0 | 5.0 | 0.00 | 0.03 | 0.01 | 77 | 1024.3 |
| 20260902185012 | 67 | 122 | 2.0 | 5.0 | 0.00 | 0.03 | 0.01 | 76 | 1024.3 |
| 20260902184524 | 68 | 141 | 2.0 | 6.0 | 0.00 | 0.03 | 0.01 | 75 | 1024.3 |
| 20260902184030 | 68 | 96 | 2.0 | 6.0 | 0.00 | 0.03 | 0.01 | 73 | 1024.3 |
| 20260902183512 | 68 | 72 | 3.0 | 6.0 | 0.00 | 0.03 | 0.01 | 72 | 1024.3 |
| 20260902183021 | 68 | 75 | 2.0 | 7.0 | 0.00 | 0.03 | 0.01 | 75 | 1024.4 |
| 20260902182519 | 68 | 127 | 3.0 | 7.0 | 0.00 | 0.03 | 0.01 | 76 | 1024.4 |
| 20260902182012 | 68 | 160 | 4.0 | 7.0 | 0.00 | 0.03 | 0.01 | 77 | 1024.4 |
| 20260902181520 | 68 | 110 | 3.0 | 7.0 | 0.00 | 0.03 | 0.01 | 77 | 1024.4 |
| 20260902181031 | 68 | 98 | 4.0 | 8.0 | 0.00 | 0.03 | 0.01 | 76 | 1024.4 |
| 20260902180512 | 68 | 108 | 4.0 | 8.0 | 0.00 | 0.03 | 0.01 | 76 | 1024.4 |
| 20260902180020 | 68 | 110 | 4.0 | 9.0 | 0.00 | 0.03 | 0.01 | 76 | 1024.5 |
| 20260902175518 | 68 | 160 | 3.0 | 10.0 | 0.00 | 0.03 | 0.01 | 76 | 1024.3 |
| 20260902175023 | 68 | 101 | 5.0 | 10.0 | 0.00 | 0.03 | 0.01 | 75 | 1024.3 |
| 20260902174524 | 68 | 120 | 5.0 | 10.0 | 0.00 | 0.03 | 0.01 | 74 | 1024.3 |
| 20260902174019 | 68 | 123 | 3.0 | 10.0 | 0.00 | 0.03 | 0.01 | 77 | 1024.4 |
| 20260902173512 | 68 | 149 | 5.0 | 12.0 | 0.00 | 0.03 | 0.01 | 75 | 1024.4 |
| 20260902173020 | 67 | 113 | 5.0 | 12.0 | 0.00 | 0.03 | 0.01 | 75 | 1024.3 |
| 20260902172519 | 67 | 99 | 7.0 | 12.0 | 0.00 | 0.03 | 0.01 | 75 | 1024.5 |
| 20260902172012 | 67 | 108 | 7.0 | 12.0 | 0.00 | 0.03 | 0.01 | 75 | 1024.5 |
| 20260902171520 | 67 | 136 | 7.0 | 10.0 | 0.00 | 0.03 | 0.01 | 76 | 1024.4 |
| 20260902171018 | 67 | 105 | 6.0 | 11.0 | 0.00 | 0.03 | 0.01 | 77 | 1024.4 |
| 20260902170513 | 67 | 115 | 7.0 | 11.0 | 0.00 | 0.03 | 0.01 | 76 | 1024.3 |
| 20260902170020 | 67 | 110 | 6.0 | 11.0 | 0.00 | 0.03 | 0.01 | 78 | 1024.3 |
| 20260902165520 | 67 | 232 | 6.0 | 11.0 | 0.00 | 0.03 | 0.01 | 76 | 1024.3 |
| 20260902165013 | 68 | 132 | 3.0 | 8.0 | 0.00 | 0.03 | 0.01 | 78 | 1024.4 |
| 20260902164520 | 67 | 131 | 6.0 | 8.0 | 0.00 | 0.03 | 0.01 | 78 | 1024.3 |
| 20260902164019 | 67 | 131 | 4.0 | 10.0 | 0.00 | 0.03 | 0.01 | 80 | 1024.4 |
| 20260902163512 | 67 | 112 | 5.0 | 12.0 | 0.00 | 0.03 | 0.01 | 80 | 1024.4 |